Home > Weather > Monaco > Past weeks

Flag for Monaco Past Weather in Monaco, Monaco — Yesterday and Last 2 Weeks

Now
77 °F

Clear.


Feels Like: 79 °F
Forecast: 70 / 83 °F
Wind: 9 mph from Northwest

Location: Nice Airport

Current Time: Aug 25, 2016 at 1:33:25 AM

Latest Report: Aug 25, 2016 at 1:00 AM


Visibility: 10 mi

Pressure: 30.07 "Hg

Humidity: 47%

Dew Point: 55 °F

Location of MonacoLocation

Past Weather in Monaco — Graph

°F

Monaco Temperature Yesterday

Maximum temperature yesterday: 82 °F (at 10:00 AM)
Minimum temperature yesterday: 73 °F (at 5:00 AM)
Average temperature yesterday: 78 °F

High & Low Weather Summary for the Past Weeks

 TemperatureHumidityPressure
High84 °F (Aug 22, 2:00 PM)83% (Aug 10, 1:00 AM)30.24 "Hg (Aug 10, 1:00 AM)
Low68 °F (Aug 12, 6:00 AM)42% (Aug 11, 11:30 AM)29.80 "Hg (Aug 10, 5:00 AM)
Average76 °F64%30.03 "Hg
* Reported Aug 10 12:00 AM — Aug 25 12:00 AM, Monaco, Weather by CustomWeather, © 2016

Note: Actual official high and low records may vary slightly from our data, if they occured in-between our weather recording intervals... More about our weather records

Advertising

Monaco Weather History for the Previous 24 Hours

Scroll right to see more
 ConditionsComfort  
Time TempWeatherWind HumidityBarometerVisibility
12:00 AM
Thu, Aug 25
79 °FClear.9 mph45%30.07 "Hg10 mi
11:30 PM
Wed, Aug 24
79 °FClear.8 mph45%30.07 "Hg10 mi
11:00 PM79 °FClear.3 mph48%30.07 "Hg10 mi
10:30 PM79 °FClear.1 mph70%30.07 "Hg10 mi
10:00 PM77 °FClear.No wind74%30.07 "Hg10 mi
9:30 PM79 °FClear.2 mph79%30.07 "Hg10 mi
9:00 PM79 °FSunny.5 mph74%30.07 "Hg10 mi
8:30 PM79 °FSunny.6 mph70%30.07 "Hg10 mi
8:00 PM81 °FSunny.6 mph70%30.07 "Hg10 mi
7:30 PM81 °FSunny.7 mph66%30.07 "Hg10 mi
7:00 PM81 °FSunny.6 mph66%30.07 "Hg10 mi
6:30 PM81 °FSunny.6 mph62%30.07 "Hg10 mi
6:00 PM81 °FSunny.8 mph66%30.07 "Hg10 mi
5:30 PM82 °FSunny.7 mph58%30.07 "Hg10 mi
5:00 PM82 °FSunny.6 mph62%30.09 "Hg10 mi
4:30 PM81 °FSunny.7 mph66%30.09 "Hg10 mi
4:00 PM81 °FPassing clouds.7 mph66%30.09 "HgN/A
3:30 PM82 °FPassing clouds.7 mph62%30.09 "HgN/A
3:13 PM81 °FPassing clouds.7 mph66%30.12 "HgN/A
2:30 PM81 °FPassing clouds.8 mph66%30.12 "HgN/A
2:00 PM81 °FSunny.8 mph66%30.12 "Hg10 mi
1:30 PM82 °FSunny.9 mph62%30.12 "Hg10 mi
1:00 PM81 °FSunny.10 mph62%30.12 "Hg10 mi
12:30 PM81 °FSunny.9 mph62%30.15 "Hg10 mi
12:00 PM81 °FSunny.8 mph62%30.15 "Hg10 mi
11:30 AM81 °FSunny.6 mph58%30.15 "Hg10 mi
11:00 AM81 °FSunny.5 mph54%30.15 "Hg10 mi
10:30 AM81 °FSunny.5 mph51%30.15 "Hg10 mi
10:00 AM82 °FSunny.2 mph48%30.15 "Hg10 mi
9:30 AM79 °FPassing clouds.7 mph45%30.15 "HgN/A
9:00 AM77 °FSunny.10 mph44%30.18 "Hg10 mi
8:30 AM75 °FSunny.9 mph47%30.18 "Hg10 mi
8:00 AM75 °FSunny.9 mph47%30.15 "Hg10 mi
7:30 AM73 °FClear.10 mph50%30.15 "Hg10 mi
7:00 AM73 °FClear.12 mph50%30.15 "Hg10 mi
6:30 AM73 °FClear.10 mph50%30.15 "Hg10 mi
6:00 AM73 °FClear.10 mph50%30.15 "Hg10 mi
5:30 AM73 °FClear.8 mph47%30.15 "Hg10 mi
5:00 AM73 °FClear.8 mph50%30.15 "Hg10 mi
4:30 AM75 °FClear.9 mph47%30.15 "Hg10 mi
4:00 AM75 °FClear.8 mph47%30.15 "Hg10 mi
3:30 AM75 °FClear.6 mph44%30.15 "Hg10 mi
3:00 AM75 °FClear.7 mph44%30.15 "Hg10 mi
2:30 AM77 °FClear.7 mph42%30.15 "Hg10 mi
2:00 AM77 °FPassing clouds.6 mph42%30.15 "HgN/A
1:30 AM77 °FPassing clouds.6 mph42%30.15 "HgN/A
1:00 AM77 °FClear.8 mph42%30.15 "Hg10 mi
Weather by CustomWeather, © 2016

See weather overviewHow to use our weather pages